Location: Baia Mare
(47.6567°N, 23.5850°E)
Time: 22:32:04
(UTC+03:00)

ISS - Pass Details

Date: 25 March 2020
Orbit: 418 x 423 km, 51.6° (Epoch: 11 April)

Event Time Altitude Azimuth Distance (km) Brightness Sun altitude
Rises 19:59:46 0° 268° (W) 2,361 1.5 -13.0°
Reaches altitude 10° 20:01:55 10° 274° (W) 1,499 0.4 -13.3°
Maximum altitude 20:05:10 46° 349° (N) 576 -2.9 -13.8°
Enters shadow 20:07:31 17° 59° (ENE) 1,154 -1.9 -14.2°
